User: anonymous   Login
Location: *
(2.5500°S, 65.9667°W)
Time: 04:15:13
(UTC+00:00)
Language:

Transit 4A - Orbit

View from above orbital plane
View from above orbital plane
View from above satellite
View from above satellite

Ground track
Ground track

The orbit data is extracted from the following two-line orbital elements,

1   116U 61015A   24112.84206738  .00000310  00000-0  29691-3 0  9993
2   116  66.8123  14.5604 0068715 105.7195 255.1478 13.92024538187747
Epoch (UTC): 21 April 2024 20:12:34
Eccentricity: 0.0068715
inclination: 66.8123°
perigee height: 871 km
apogee height: 972 km
right ascension of ascending node: 14.5604°
argument of perigee: 105.7195°
revolutions per day: 13.92024538
mean anomaly at epoch: 255.1478°
orbit number at epoch: 18774

The dashed part of the orbit path shows where the satellite is in the earth's shadow,  

DLR